Location: Peterborough
(44.3091°N, 78.3197°W)
Time: 13:46:02
(UTC-04:00)

Envisat - Pass Details

Date: 21 April 2026
Orbit: 761 x 762 km, 98.4° (Epoch: 17 May)

Event Time Altitude Azimuth Distance (km) Brightness Sun altitude
Rises 03:31:14 0° 18° (NNE) 3,234 7.4 -25.5°
Reaches altitude 10° 03:33:36 10° 23° (NNE) 2,303 6.4 -25.3°
Maximum altitude 03:38:34 53° 100° (E) 936 3.5 -24.7°
Enters shadow 03:39:58 40° 149° (SSE) 1,111 3.6 -24.5°
